Arbor Vitae, WI

11:46 PM CDT on September 19, 2017 (GMT -0500)
Lakeland-Lee Memorial

Weather History for KARV - November, 2013

Change the Weather History Date:

Thursday, November 14, 2013

  Actual Average Record
Temperature  
Mean Temperature 36 °F -  
Max Temperature 41 °F 35 °F 68 °F (1953)
Min Temperature 31 °F 19 °F -8 °F (1986)
Degree Days  
Heating Degree Days 29    
Moisture  
Dew Point 30 °F    
Average Humidity 78    
Maximum Humidity 92    
Minimum Humidity 69    
Precipitation  
Precipitation 0.00 in - - ()
Sea Level Pressure  
Sea Level Pressure 29.77 in    
Wind  
Wind Speed 4 mph (SW)    
Max Wind Speed 8 mph    
Max Gust Speed -    
Visibility 10 miles    
Events      
Averages and records for this station are not official NWS values.
T = Trace of Precipitation, MM = Missing Value Source: NWS Daily Summary

Daily Weather History Graph

Daily Weather History Graph

Search for Another Location

Airport or City:

Trip Planner

Search our weather history database for the weather conditions in past years. The results will help you decide how hot, cold, wet, or windy it might be!

Date:

Astronomy

Nov. 14, 2013 Rise Set
Actual Time 6:58 AM CST 4:28 PM CST
Civil Twilight 6:25 AM CST 5:00 PM CST
Nautical Twilight 5:49 AM CST 5:36 PM CST
Astronomical Twilight 5:14 AM CST 6:11 PM CST
Moon 2:56 PM CST (11/14) 3:44 AM CST (11/14)
Length of Visible Light 10h 34m
Length of Day
9h 30m
Waxing Gibbous, 92% of the Moon is Illuminated
Nov 14
Waxing Gibbous
Nov 17
Full
Nov 25
Last Quarter
Dec 2
New
Dec 9
First Quarter

Hourly Weather History & Observations

Time (CST) Temp. Windchill Dew Point Humidity Pressure Visibility Wind Dir Wind Speed Gust Speed Precip Events Conditions
12:15 AM 36.5 °F 32.7 °F 29.5 °F 76% 29.82 in 10.0 mi SW 4.6 mph - N/A   Clear
12:35 AM 36.5 °F 31.8 °F 29.3 °F 75% 29.81 in 10.0 mi SW 5.8 mph - N/A   Clear
12:55 AM 36.5 °F 33.9 °F 29.3 °F 75% 29.80 in 10.0 mi SW 3.5 mph - N/A   Clear
1:15 AM 36.1 °F 33.5 °F 29.8 °F 78% 29.80 in 10.0 mi SSW 3.5 mph - N/A   Clear
1:35 AM 34.0 °F - 27.7 °F 78% 29.80 in 10.0 mi Calm Calm - N/A   Clear
1:55 AM 34.0 °F - 28.0 °F 79% 29.80 in 10.0 mi Calm Calm - N/A   Clear
2:15 AM 34.0 °F - 27.7 °F 78% 29.80 in 10.0 mi Calm Calm - N/A   Clear
2:35 AM 34.0 °F 31.0 °F 28.0 °F 79% 29.80 in 10.0 mi SSW 3.5 mph - N/A   Clear
2:55 AM 32.9 °F 29.8 °F 27.3 °F 80% 29.79 in 10.0 mi SSW 3.5 mph - N/A   Clear
3:15 AM 32.9 °F 27.5 °F 27.5 °F 81% 29.79 in 10.0 mi SSW 5.8 mph - N/A   Clear
3:35 AM 34.0 °F 29.8 °F 28.4 °F 80% 29.79 in 10.0 mi SW 4.6 mph - N/A   Scattered Clouds
3:55 AM 35.2 °F 30.3 °F 29.3 °F 79% 29.78 in 10.0 mi SW 5.8 mph - N/A   Overcast
4:15 AM 35.4 °F 31.5 °F 29.5 °F 79% 29.79 in 10.0 mi SW 4.6 mph - N/A   Mostly Cloudy
4:35 AM 34.0 °F - 28.0 °F 79% 29.79 in 10.0 mi Calm Calm - N/A   Scattered Clouds
4:55 AM 34.0 °F 31.0 °F 28.4 °F 80% 29.79 in 10.0 mi SSW 3.5 mph - N/A   Scattered Clouds
5:15 AM 34.0 °F 29.8 °F 28.4 °F 80% 29.79 in 10.0 mi SSW 4.6 mph - N/A   Mostly Cloudy
5:35 AM 36.5 °F 31.0 °F 30.6 °F 79% 29.78 in 10.0 mi SSW 6.9 mph - N/A   Overcast
5:55 AM 36.5 °F 32.7 °F 30.2 °F 78% 29.79 in 10.0 mi WSW 4.6 mph - N/A   Mostly Cloudy
6:15 AM 36.5 °F 32.7 °F 30.2 °F 78% 29.79 in 10.0 mi SW 4.6 mph - N/A   Mostly Cloudy
6:35 AM 36.5 °F 32.7 °F 30.2 °F 78% 29.79 in 10.0 mi SSW 4.6 mph - N/A   Mostly Cloudy
6:55 AM 36.5 °F 32.7 °F 30.2 °F 78% 29.78 in 10.0 mi SSW 4.6 mph - N/A   Mostly Cloudy
7:15 AM 36.5 °F 32.7 °F 30.2 °F 78% 29.79 in 10.0 mi SW 4.6 mph - N/A   Overcast
7:35 AM 36.5 °F 31.0 °F 31.1 °F 81% 29.79 in 10.0 mi SSW 6.9 mph - N/A   Overcast
7:55 AM 36.5 °F - 30.4 °F 78% 29.79 in 10.0 mi Calm Calm - N/A   Overcast
8:15 AM 36.5 °F - 30.2 °F 78% 29.79 in 10.0 mi Calm Calm - N/A   Overcast
8:35 AM 36.5 °F 32.7 °F 30.2 °F 78% 29.79 in 10.0 mi WSW 4.6 mph - N/A   Scattered Clouds
8:55 AM 36.5 °F 33.9 °F 29.7 °F 76% 29.79 in 10.0 mi WSW 3.5 mph - N/A   Clear
9:15 AM 36.5 °F 32.7 °F 29.7 °F 76% 29.79 in 10.0 mi SSW 4.6 mph - N/A   Clear
9:35 AM 36.5 °F 32.7 °F 29.3 °F 75% 29.79 in 10.0 mi SW 4.6 mph - N/A   Clear
9:55 AM 37.6 °F 34.0 °F 30.2 °F 75% 29.79 in 10.0 mi WSW 4.6 mph - N/A   Clear
10:15 AM 38.5 °F - 30.9 °F 74% 29.79 in 10.0 mi Calm Calm - N/A   Clear
10:35 AM 39.2 °F 35.0 °F 31.1 °F 73% 29.78 in 10.0 mi SW 5.8 mph - N/A   Clear
10:55 AM 39.2 °F 37.0 °F 30.7 °F 72% 29.78 in 10.0 mi WSW 3.5 mph - N/A   Scattered Clouds
11:15 AM 39.2 °F 35.9 °F 30.7 °F 72% 29.77 in 10.0 mi SSW 4.6 mph - N/A   Mostly Cloudy
11:35 AM 39.2 °F 34.2 °F 30.2 °F 70% 29.77 in 10.0 mi SW 6.9 mph - N/A   Mostly Cloudy
11:55 AM 39.2 °F 33.6 °F 30.4 °F 71% 29.76 in 10.0 mi SSW 8.1 mph - N/A   Overcast
12:15 PM 39.2 °F 34.2 °F 30.0 °F 70% 29.76 in 10.0 mi SW 6.9 mph - N/A   Overcast
12:35 PM 39.2 °F 33.6 °F 29.8 °F 69% 29.76 in 10.0 mi SW 8.1 mph - N/A   Mostly Cloudy
12:55 PM 39.2 °F 35.0 °F 30.0 °F 70% 29.74 in 10.0 mi SSW 5.8 mph - N/A   Mostly Cloudy
1:15 PM 39.2 °F 35.9 °F 30.2 °F 70% 29.74 in 10.0 mi SSW 4.6 mph - N/A   Mostly Cloudy
1:35 PM 39.6 °F 36.3 °F 30.7 °F 71% 29.74 in 10.0 mi SW 4.6 mph - N/A   Mostly Cloudy
1:55 PM 39.7 °F 36.5 °F 30.6 °F 70% 29.76 in 10.0 mi WSW 4.6 mph - N/A   Mostly Cloudy
2:15 PM 39.7 °F 36.5 °F 30.6 °F 70% 29.77 in 10.0 mi WSW 4.6 mph - N/A   Overcast
2:35 PM 39.7 °F 37.6 °F 30.9 °F 71% 29.76 in 10.0 mi SSW 3.5 mph - N/A   Mostly Cloudy
2:55 PM 41.5 °F 38.6 °F 32.0 °F 69% 29.76 in 10.0 mi SSW 4.6 mph - N/A   Scattered Clouds
3:15 PM 39.2 °F 35.0 °F 30.2 °F 70% 29.74 in 10.0 mi South 5.8 mph - N/A   Scattered Clouds
3:35 PM 39.2 °F 35.9 °F 30.2 °F 70% 29.74 in 10.0 mi SSW 4.6 mph - N/A   Scattered Clouds
3:55 PM 39.2 °F 35.0 °F 30.7 °F 72% 29.74 in 10.0 mi SSW 5.8 mph - N/A   Clear
4:15 PM 38.3 °F 34.8 °F 30.7 °F 74% 29.74 in 10.0 mi SSW 4.6 mph - N/A   Clear
4:35 PM 36.5 °F - 29.3 °F 75% 29.75 in 10.0 mi Calm Calm - N/A   Mostly Cloudy
4:55 PM 36.5 °F - 29.8 °F 77% 29.75 in 10.0 mi Calm Calm - N/A   Overcast
5:15 PM 36.5 °F 32.7 °F 29.8 °F 77% 29.74 in 10.0 mi South 4.6 mph - N/A   Overcast
5:35 PM 36.5 °F 31.8 °F 29.7 °F 76% 29.74 in 10.0 mi South 5.8 mph - N/A   Overcast
5:55 PM 36.5 °F 31.8 °F 30.4 °F 78% 29.74 in 10.0 mi SSW 5.8 mph - N/A   Scattered Clouds
6:15 PM 36.5 °F 31.0 °F 30.9 °F 80% 29.74 in 10.0 mi SSW 6.9 mph - N/A   Clear
6:35 PM 34.2 °F 28.2 °F 29.1 °F 82% 29.74 in 10.0 mi SSW 6.9 mph - N/A   Clear
6:55 PM 34.0 °F 27.2 °F 28.9 °F 82% 29.75 in 10.0 mi SSW 8.1 mph - N/A   Clear
7:15 PM 33.3 °F 27.1 °F 28.8 °F 84% 29.76 in 10.0 mi SSW 6.9 mph - N/A   Clear
7:35 PM 34.0 °F 27.2 °F 29.3 °F 83% 29.77 in 10.0 mi SSW 8.1 mph - N/A   Clear
7:55 PM 33.8 °F 30.8 °F 29.7 °F 85% 29.78 in 10.0 mi WSW 3.5 mph - N/A   Mostly Cloudy
8:15 PM 34.0 °F 29.8 °F 29.7 °F 84% 29.78 in 10.0 mi SSW 4.6 mph - N/A   Overcast
8:35 PM 34.0 °F 31.0 °F 30.0 °F 85% 29.78 in 10.0 mi SSW 3.5 mph - N/A   Overcast
8:55 PM 32.5 °F 29.3 °F 28.9 °F 87% 29.78 in 10.0 mi South 3.5 mph - N/A   Mostly Cloudy
9:15 PM 31.8 °F - 28.2 °F 87% 29.78 in 10.0 mi Calm Calm - N/A   Scattered Clouds
9:35 PM 31.8 °F - 28.4 °F 87% 29.78 in 10.0 mi Calm Calm - N/A   Clear
9:55 PM 31.8 °F - 28.9 °F 89% 29.78 in 10.0 mi Calm Calm - N/A   Mostly Cloudy
10:15 PM 32.0 °F - 28.9 °F 88% 29.77 in 10.0 mi Calm Calm - N/A   Overcast
10:35 PM 32.9 °F - 30.2 °F 90% 29.77 in 10.0 mi Calm Calm - N/A   Overcast
10:55 PM 34.0 °F - 31.6 °F 91% 29.77 in 10.0 mi Calm Calm - N/A   Overcast
11:15 PM 34.0 °F - 31.8 °F 92% 29.77 in 10.0 mi Calm Calm - N/A   Overcast
11:35 PM 34.0 °F - 31.8 °F 92% 29.77 in 10.0 mi Calm Calm - N/A   Overcast
11:55 PM 34.0 °F - 32.0 °F 92% 29.77 in 10.0 mi Calm Calm - N/A   Scattered Clouds